www.pogodaiklimat.ru

Погода и климат >> Архив погоды >> Антарктида >> Davis


АРХИВ ПОГОДЫ на Davis

Время (UTC), дата Ветер
(напр.,м/с)
 
Видим.   Явления Облачность Т
(С)
Тd
(С)
f
(%)
Тe
(С)
Тes
(С)
Комфортность P
(гПа)
Po
(гПа)
Тmin
(С)
Tmax
(С)
R
(мм)
R24
(мм)
S
(см)
00 13.08 ЮВ 5 30 км 9/9 1500 м
[Sc]
-12.8 -17.1 70 -21 -21 по сезону 978.3 975.3
03 13.08 ЮВ 4 30 км 9/8 1500 м
[Sc Ci sp]
-16.2 -20.4 70 -24 -24 по сезону 977.7 974.7 -23.8
06 13.08 ЮВ 4 30 км 9/3 1500 м
[Sc Ac trans Cs]
-16.3 -21.5 64 -25 -24 по сезону 977.3 974.3
09 13.08 ЮВ 3 30 км 9/8 1500 м
[Sc Ac trans Cs]
-15.7 -20.7 65 -23 -23 по сезону 977.3 974.3
12 13.08 штиль 0 30 км 9/8 1500 м
[Sc Ac trans Cs]
-15.6 -19.8 70 -16 -16 тепло 976.9 973.9
15 13.08 В 4 н/о 3/3 1500 м
[]
-16.7 -20.4 73 -24 -24 по сезону 976.5 973.5 -11.3
18 13.08 В 3 н/о 10/10 1500 м
[]
-15.4 -18.3 78 -21 -21 по сезону 976.3 973.3
21 13.08 ЮВ 4 н/о 10/10 1500 м
[]
-15.2 -19.2 71 -23 -23 по сезону 976.1 973.1
00 14.08 В 5 30 км 9/9 1500 м
[Sc]
-15.7 -19.9 70 -24 -24 по сезону 976.2 973.2
03 14.08 В 4 30 км 9/1 1000 м
[Sc Ac trans]
-15.9 -19.9 71 -23 -23 по сезону 976.4 973.4 -17.9
06 14.08 СВ 4 30 км 9/9 600 м
[St]
-14.4 -18.5 71 -22 -22 по сезону 976.7 973.7
09 14.08 СВ 3 30 км слаб. снег 9/9 200 м
[Sc]
-14.2 -17.6 75 -21 -21 по сезону 977.1 974.1
12 14.08 ЮЗ 5 25 км слаб. снег 9/9 200 м
[St]
-17.2 -19.0 86 -27 -27 по сезону 978.3 975.3
15 14.08 ЮЗ 6 н/о 10/10 600 м
[]
-19.1 -21.4 82 -29 -29 по сезону 979.3 976.3 -13.7
18 14.08 ЮЗ 4 н/о 10/10 600 м
[]
-19.4 -21.4 84 -28 -28 по сезону 980.1 977.1
21 14.08 ЮВ 2 н/о 10/10 600 м
[]
-20.4 -22.5 83 -26 -26 по сезону 980.9 977.9
00 15.08 СВ 3 10 км слаб. снег 9/9 100 м
[St]
-19.9 -21.9 84 -28 -28 по сезону 981.8 978.8
03 15.08 В 5 25 км слаб. снег 9/9 600 м
[St]
-19.0 -21.0 84 -28 -28 по сезону 982.6 979.6 -20.4
06 15.08 С 6 5000 м слаб. снег 10/10 600 м
[St]
-18.4 -20.8 81 -29 -29 по сезону 983.9 980.9
09 15.08 С 5 20 км слаб. снег 10/10 600 м
[St]
-18.5 -21.8 75 -28 -28 по сезону 986.5 983.5
12 15.08 С 4 5000 м слаб. снег 10/10 600 м
[St]
-19.2 -21.6 81 -28 -28 по сезону 988.1 985.0
15 15.08 штиль 0 н/о 10/10 300 м
[]
-19.5 -21.8 82 -20 -20 по сезону 989.3 986.2 -17.2
18 15.08 СВ 6 н/о 10/10 300 м
[]
-19.0 -21.4 81 -29 -29 по сезону 990.6 987.5
21 15.08 СВ 8 н/о 10/10 600 м
[]
-19.9 -23.6 72 -32 -32 опасность
обморожения
992.2 989.1
00 16.08 С 3 3000 м слаб. снег 10/10 300 м
[St]
-20.9 -23.6 79 -28 -28 по сезону 993.9 990.8
03 16.08 В 2 8000 м слаб. снег 10/10 600 м
[St]
-21.4 -24.0 79 -26 -26 по сезону 995.0 991.9 -21.1 0.8
06 16.08 З 6 3000 м слаб. снег 10/10 600 м
[St]
-23.2 -25.7 80 -35 -35 опасность
обморожения
995.9 992.8
09 16.08 З 4 5000 м слаб. снег 9/9 100 м
[St]
-25.0 -27.7 78 -35 -35 опасность
обморожения
996.3 993.2
12 16.08 З 4 25 км осадки на расстоянии 8/8 50 м
[Sc]
-27.9 -30.8 76 -39 -39 опасность
обморожения
995.4 992.3
15 16.08 Ю 3 н/о 8/8 600 м
[]
-29.8 -32.9 74 -40 -40 опасность
обморожения
993.2 990.1 -18.8
18 16.08 З 2 н/о 8/8 1000 м
[]
-29.3 -32.3 75 -35 -35 опасность
обморожения
991.3 988.2
21 16.08 штиль 0 н/о 5/5 600 м
[]
-30.6 -33.8 73 -31 -31 опасность
обморожения
988.9 985.8
00 17.08 СВ 3 30 км 5/5 600 м
[Sc]
-30.4 -33.6 73 -39 -39 опасность
обморожения
987.1 984.0
03 17.08 СВ 4 30 км 3/3 600 м
[Sc Cs]
-31.8 -35.1 72 -43 -43 опасность
обморожения
985.9 982.9 -32.0 0.0
06 17.08 В 3 30 км 9/9 100 м
[St]
-27.8 -30.7 76 -37 -37 опасность
обморожения
985.4 982.4
09 17.08 Ю 3 30 км 1/1 1000 м
[Sc As trans]
-27.2 -30.0 77 -35 -35 опасность
обморожения
984.1 981.1
12 17.08 ЮВ 2 30 км 1/1 600 м
[Sc As trans]
-26.0 -28.8 77 -33 -33 опасность
обморожения
983.1 980.1
15 17.08 ЮВ 5 н/о н/о -26.9 -30.7 70 -38 -38 опасность
обморожения
981.6 978.6 -25.9
18 17.08 Ю 4 н/о н/о -22.2 -28.4 57 -31 -31 опасность
обморожения
979.0 976.0
21 17.08 ЮВ 5 н/о 10/10 1500 м
[]
-18.7 -24.9 58 -28 -28 по сезону 976.6 973.6
00 18.08 ЮВ 5 5000 м слаб. снег 10/10 600 м
[St]
-14.0 -18.9 66 -22 -22 по сезону 973.9 970.9
03 18.08 В 6 10 км слаб. снег 10/10 300 м
[St]
-10.0 -15.5 64 -18 -18 по сезону 971.1 968.1 -32.6 0.0
06 18.08 СВ 9 10 км метель 10/10 300 м
[St]
-9.6 -13.3 74 -20 -20 по сезону 968.6 965.6
09 18.08 СВ 12 10 км метель 10/8 1500 м
[St As trans]
-9.4 -11.9 82 -21 -21 по сезону 965.9 962.9
12 18.08 СВ 6 10 км осадки на расстоянии {метель} 10/10 1500 м
[St]
-8.8 -13.6 68 -17 -17 тепло 965.5 962.5
15 18.08 СВ 6 н/о 9/0 2000 м
[]
-9.1 -13.9 68 -18 -18 тепло 964.8 961.8 -8.7
18 18.08 СВ 7 н/о 10/10 1500 м
[]
-8.9 -13.9 67 -18 -18 тепло 963.6 960.6
21 18.08 СВ 10 н/о 10/10 300 м
[]
-9.7 -11.6 86 -20 -20 по сезону 963.1 960.1
00 19.08 СВ 14 500 м метель 10/10 300 м
[Frnb]
-9.5 -10.6 92 -22 -22 по сезону 963.1 960.1
03 19.08 СВ 16 1000 м метель 10/4 300 м
[Frnb As trans]
-9.2 -10.5 90 -22 -22 по сезону 964.4 961.4 -14.1
06 19.08 СВ 11 20 км позёмок 9/3 600 м
[Cu Sc Ac As]
-8.2 -11.0 80 -19 -19 по сезону 968.1 965.1
09 19.08 СВ 12 15 км позёмок 9/1 600 м
[Cu Sc Ac lent]
-8.3 -11.8 76 -19 -19 по сезону 969.4 966.4
12 19.08 СВ 10 20 км 9/5 600 м
[Sc Ac lent]
-7.8 -12.5 69 -18 -18 по сезону 971.6 968.6
15 19.08 СВ 12 н/о 10/0
[]
-7.9 -12.6 69 -19 -19 по сезону 971.6 968.6 -7.7
18 19.08 В 8 н/о 10/10 1000 м
[]
-9.0 -15.5 59 -18 -18 тепло 973.9 970.9
21 19.08 В 7 н/о 10/10 1000 м
[]
-8.9 -15.4 59 -18 -18 тепло 974.1 971.1

 

Местоположение метеостанции Davis (Антарктида): широта -68.58 долгота 77.95 высота над уровнем моря 13 м.

В архиве по умолчанию представлена погода на Davis за последнюю неделю. Архивные данные за месяц целиком и за предыдущие месяцы, начиная с января 2011 года, Вы можете получить, выбрав интересующий диапазон дат из раскрывающегося списка и нажав кнопку "Ввод!".


*Определитесь, кто Вы:
робот инопланетянин человек

Внимание! Время в таблицах - всемирное. Для получения местного времени необходимо прибавить поправку, которая равна 0 ч.

Смотрите также архив погоды в соседних городах и на ближайших метеорологических станциях:

Погода на Davis (Whoop Whoop) (Антарктида) (37 км)
Погода на Дэвисе (Антарктида) (108 км)
Погода на Прогрессе (Антарктида) (109 км)
Погода на Бхарати (Антарктида) (116 км)
Погода на Дружной-4 (Антарктида) (211 км)
Погода на Леднике Эймери (Антарктида) (404 км)
Погода на Моусоне (Антарктида) (634 км)
Погода в Мирном (Антарктида) (676 км)
Погода на Dome Plateau Eagle (Антарктида) (871 км)
Погода на Davis АМС (Антарктида) (1310 км)

Пояснения к столбцам:

Ветер - указаны скорость ветра в м/с - средняя за 10 мин, порывы в срок и между сроками (в фигурных скобках) и направление, откуда дует ветер: С - северный, СВ - северо-восточный, В - восточный, ЮВ - юго-восточный, Ю - южный, ЮЗ - юго-западный, З - западный, СЗ - северо-западный.
Видимость - горизонтальная дальность видимости в метрах или километрах. При видимости от 1 до 10 км при отсутствии осадков обычно наблюдается дымка, при ухудшении видимости до 1 км и менее - туман. В сухую погоду видимость может ухудшаться дымом, пылью или мглою.
Явления - указаны атмосферные явления, наблюдавшиеся в срок или в последний час перед сроком; фигурными скобками обозначены явления, наблюдавшиеся между сроками (за 1-3 часа до срока); квадратными скобками обозначены град или гололедные отложения с указанием их диаметра в мм.
Облачность - указаны через наклонную черту общая и нижняя облачность в баллах и высота нижней границы облаков в метрах; квадратными скобками обозначены формы облаков: Ci - перистые, Cs - перисто-слоистые, Cc - перисто-кучевые, Ac - высококучевые, As - высокослоистые, Sc - слоисто-кучевые, Ns - слоисто-дождевые, Cu - кучевые, Cb - кучево-дождевые. Подробнее классификацию облаков см. в Атласе облаков (PDF).
T - Температура воздуха - температура, измеренная на высоте 2 м над землей.
Td - Температура точки росы - температура, при понижении до которой содержащийся в воздухе водяной пар достигнет насыщения.
f - Относительная влажность воздуха - влажноcть воздуха, измеренная на высоте 2 м над землей.
Te - Эффективная температура - температура, которую ощущает одетый по сезону человек в тени. Характеристика душности погоды. При расчете учитывается влияние влажности воздуха и скорости ветра на теплоощущения человека.
Tes - Эффективная температура на солнце - температура, которую ощущает человек, с поправкой на солнечный нагрев. Характеристика знойности погоды. Зависит от высоты солнца над горизонтом, облачности и скорости ветра. Ночью, в пасмурную погоду, а также при ветре 12 м/с и более поправка равна нулю.
P - Атмосферное давление - приведенное к уровню моря атмосферное давление.
Po - Атмосферное давление - измеренное на уровне метеостанции атмосферное давление.
Tmin - Минимальная температура - минимум температуры воздуха на высоте 2 м над землей.
Tmax - Максимальная температура - максимум температуры воздуха на высоте 2 м над землей.
R - Количество осадков - Количество выпавших осадков за период времени, мм. При наведении курсора мыши на число - период времени, за который выпало указанное количество осадков.
R24 - Количество осадков - Количество выпавших осадков за 24 часа, мм.
S - Снежный покров - Высота снежного покрова, см. При наведении курсора мыши на число - состояние снежного покрова и степень покрытия местности в баллах.